Regional Weather Roundup
Issued by NWS

Home | Current Version | Previous Version | Graphics & Text | Print | Product List | Glossary On
Versions: 1 2 3 4 5 6 7 8 9 10 11 12 13 14 15 16 17 18 19 20 21 22 23 24 25 26 27 28 29 30 31 32 33 34 35 36 37 38 39 40 41 42 43 44 45 46 47 48 49 50
000
ASUS43 KBIS 270320
RWRND

NORTH DAKOTA REGIONAL WEATHER ROUNDUP
NATIONAL WEATHER SERVICE BISMARCK ND
1000 PM CDT SUN APR 26 2015

NOTE: "FAIR" INDICATES FEW OR NO CLOUDS BELOW 12,000 FEET WITH NO
SIGNIFICANT WEATHER AND/OR OBSTRUCTIONS TO VISIBILITY.


NDZ001>003-009>011-017-270400-
NORTHWEST NORTH DAKOTA

CITY           SKY/WX    TMP DP  RH WIND       PRES   REMARKS
WILLISTON      CLOUDY    50  33  52 N7        30.17R
MINOT          LGT RAIN  48  45  89 W7        30.14R
MINOT AFB      CLOUDY    47  47 100 W5        30.14R
$$

NDZ018>021-031>035-040>046-270400-
SOUTHWEST NORTH DAKOTA

CITY           SKY/WX    TMP DP  RH WIND       PRES   REMARKS
BISMARCK       CLOUDY    51  47  86 N7        30.14R
DICKINSON      LGT RAIN  43  40  89 N7        30.14R
GARRISON         N/A     46  45  96 CALM      30.15R
HETTINGER ARPT CLOUDY    45  43  93 N8        30.14R FOG
$$

NDZ004>008-012>016-024-026-027-054-270400-
NORTHEAST NORTH DAKOTA

CITY           SKY/WX    TMP DP  RH WIND       PRES   REMARKS
GRAND FORKS    PTCLDY    53  29  39 CALM      30.12R
GRND FRKS AFB  PTCLDY    48  26  41 SE3       30.12S
DEVILS LAKE    PTCLDY    46  41  81 N8        30.14R
$$

NDZ022-023-025-028>030-036>039-047>053-270400-
SOUTHEAST NORTH DAKOTA

CITY           SKY/WX    TMP DP  RH WIND       PRES   REMARKS
FARGO          PTCLDY    51  28  41 CALM      30.12R
JAMESTOWN      CLEAR     47  30  51 E6        30.12R
$$



USA.gov is the U.S. government's official web portal to all federal, state and local government web resources and services.